Date,TemperatureHighF,TemperatureAvgF,TemperatureLowF,DewpointHighF,DewpointAvgF,DewpointLowF,HumidityHigh,HumidityAvg,HumidityLow,PressureMaxIn,PressureMinIn,WindSpeedMaxMPH,WindSpeedAvgMPH,GustSpeedMaxMPH,PrecipitationSumIn
2012-1-1,80.3,68.6,58.2,15.6,11.2,6.8,14,11,7,30.26,30.12,14,5,16,0.00
2012-1-2,79.9,69.6,60.0,20.4,15.1,8.3,16,12,8,30.28,30.15,15,5,19,0.00
2012-1-3,80.4,69.5,62.0,22.5,19.7,17.5,19,15,10,30.26,30.14,14,4,18,0.00
2012-1-4,79.0,69.1,60.3,28.6,18.4,14.2,19,15,9,30.30,30.20,15,6,21,0.00
2012-1-5,78.0,68.1,60.5,21.1,16.3,12.7,18,14,10,30.22,29.97,12,4,17,0.00
2012-1-6,74.9,65.9,59.0,28.5,20.1,16.4,22,17,12,30.03,29.91,14,4,18,0.00
2012-1-7,73.7,64.0,56.0,28.4,20.8,8.1,30,20,11,30.07,29.89,40,8,52,0.00
2012-1-8,69.0,61.9,54.6,16.5,10.2,0.7,21,13,8,30.20,30.07,47,14,54,0.00
2012-1-9,71.0,62.7,55.6,23.9,18.0,6.1,26,18,11,30.27,30.14,19,5,32,0.00
2012-1-10,69.1,60.3,52.8,26.5,22.6,19.4,29,24,17,30.18,30.02,16,4,20,0.00
2012-1-11,71.0,62.1,54.8,31.9,25.2,11.9,32,25,13,30.07,29.97,14,2,21,0.00
2012-1-12,70.7,63.5,56.9,20.9,7.6,-5.3,21,11,6,30.11,29.99,23,6,31,0.00
2012-1-13,71.4,61.5,52.4,-0.7,-6.9,-11.0,9,6,4,30.25,30.11,16,6,22,0.00
2012-1-14,68.0,59.5,53.2,15.0,-3.0,-16.8,15,8,3,30.18,30.09,14,4,18,0.00
2012-1-15,62.3,56.5,52.5,37.1,13.2,-1.0,52,20,9,30.12,29.99,36,6,44,0.00
2012-1-16,62.6,54.9,47.7,42.2,37.6,34.2,66,53,35,30.11,29.99,46,22,58,0.00
2012-1-17,63.4,53.0,44.0,34.8,30.2,25.6,62,43,28,30.26,30.10,33,8,39,0.00
2012-1-18,65.2,56.2,47.1,30.5,25.9,19.3,40,31,24,30.30,30.14,15,2,18,0.00
2012-1-19,68.8,58.6,48.4,29.4,23.3,16.5,37,26,18,30.14,29.96,11,2,18,0.00
2012-1-20,72.4,61.7,53.0,39.2,32.0,25.2,45,33,19,30.03,29.93,23,5,42,0.00
2012-1-21,67.5,60.8,56.0,47.9,39.5,28.0,67,46,31,29.98,29.77,78,30,99,0.00
2012-1-22,64.4,56.2,48.6,39.8,33.5,26.8,65,43,29,30.14,29.98,28,6,39,0.00
2012-1-23,60.8,54.7,49.6,47.0,38.9,31.6,75,56,36,30.06,29.84,25,4,34,0.01
2012-1-24,68.2,60.6,48.1,39.7,27.8,16.0,69,33,15,30.24,29.94,48,10,53,0.00
2012-1-25,77.3,68.7,61.0,34.0,29.9,17.5,34,24,17,30.26,30.07,40,11,62,0.00
2012-1-26,78.1,67.0,57.5,36.4,33.4,31.2,37,29,20,30.13,29.91,18,2,18,0.00
2012-1-27,73.0,66.9,59.6,36.4,27.5,9.5,36,24,12,30.18,29.91,57,16,66,0.00
2012-1-28,73.0,64.0,54.2,12.0,-2.4,-21.5,16,8,2,30.30,30.15,42,14,52,0.00
2012-1-29,74.2,64.8,55.4,7.4,-6.2,-19.7,9,6,3,30.27,30.06,17,5,20,0.00
2012-1-30,71.5,63.0,54.2,13.3,4.2,-1.8,16,10,6,30.06,29.91,17,6,22,0.00
2012-1-31,75.5,64.4,55.0,25.3,14.3,6.7,25,15,8,30.10,29.92,29,8,31,0.00
2012-2-1,73.3,64.0,55.3,41.4,23.3,14.3,52,22,14,30.10,29.91,43,11,54,0.00
2012-2-2,70.1,61.3,52.6,35.2,18.8,4.0,49,23,10,30.00,29.89,40,13,51,0.00
2012-2-3,67.6,59.1,50.5,18.3,12.9,4.4,22,16,12,30.10,30.00,27,10,33,0.00
2012-2-4,68.3,60.4,51.9,24.5,21.7,17.5,28,22,18,30.11,30.02,20,7,26,0.00
2012-2-5,70.8,62.3,53.0,23.9,21.3,19.1,28,21,16,30.10,29.97,31,7,34,0.00
2012-2-6,69.1,62.0,52.0,22.3,19.5,13.5,27,19,15,30.06,29.96,16,3,22,0.00
2012-2-7,64.2,60.1,55.5,22.6,18.1,13.8,24,19,17,30.00,29.90,12,3,14,0.00
2012-2-8,73.9,66.4,58.9,30.2,26.0,20.5,27,22,18,30.14,29.95,36,9,44,0.00
2012-2-9,82.7,71.0,59.1,30.8,26.8,20.6,29,20,11,30.17,30.03,18,6,23,0.00
2012-2-10,80.8,71.3,61.7,37.5,28.5,21.6,33,21,15,30.09,29.93,29,9,34,0.00
2012-2-11,67.1,61.7,54.8,42.6,37.9,29.1,59,42,25,29.93,29.76,56,27,71,0.00
2012-2-12,65.0,57.7,52.6,42.2,40.0,37.5,63,52,37,29.92,29.82,50,26,59,0.00
2012-2-13,65.8,56.1,48.7,41.7,36.6,21.6,63,49,27,29.92,29.75,61,24,75,0.00
2012-2-14,63.2,54.1,46.1,37.8,33.9,31.0,63,47,31,30.00,29.83,52,17,55,0.00
2012-2-15,58.2,51.2,44.3,43.0,37.9,34.5,91,62,43,30.00,29.84,41,11,49,0.23
2012-2-16,65.0,56.6,45.5,42.0,32.7,24.4,87,43,25,30.09,29.96,47,12,57,0.01
2012-2-17,73.5,62.8,51.7,27.5,22.3,14.9,34,22,11,30.14,30.02,51,6,67,0.00
2012-2-18,64.5,57.4,48.8,44.3,35.7,24.3,63,45,28,30.11,29.93,36,7,50,0.00
2012-2-19,64.4,56.7,51.4,39.7,37.2,34.5,62,49,34,30.03,29.87,43,20,53,0.00
2012-2-20,63.9,56.3,48.1,36.0,29.7,23.6,54,37,26,30.09,30.00,22,5,27,0.00
2012-2-21,73.7,62.9,51.3,27.8,23.4,16.6,39,23,12,30.18,30.06,28,5,32,0.00
2012-2-22,82.2,71.1,59.8,35.5,32.2,24.4,33,24,15,30.12,29.85,25,5,33,0.00
2012-2-23,85.6,73.2,61.1,30.3,23.9,16.3,27,17,8,29.91,29.73,33,6,37,0.00
2012-2-24,81.5,71.5,63.3,27.8,23.1,16.9,23,16,11,30.08,29.91,25,6,34,0.00
2012-2-25,81.3,69.1,59.4,41.7,30.8,16.3,40,25,14,30.05,29.82,36,10,42,0.00
2012-2-26,75.1,66.2,54.8,41.9,15.6,-5.6,61,19,4,29.91,29.74,44,10,54,0.00
2012-2-27,61.4,53.8,43.8,39.9,34.7,30.9,75,49,32,29.86,29.73,53,24,63,0.00
2012-2-28,58.4,50.5,44.2,34.0,30.2,26.5,65,46,33,30.21,29.86,44,19,57,0.00
2012-2-29,63.7,54.1,45.7,40.8,33.0,27.0,65,46,26,30.21,30.06,54,19,58,0.00
2012-3-1,66.6,57.4,51.3,40.9,39.2,36.4,65,52,33,30.07,29.86,55,25,67,0.00
2012-3-2,65.7,58.5,51.1,39.5,0.7,-26.1,61,16,2,30.31,29.96,56,15,68,0.00
2012-3-3,74.6,62.1,48.9,16.0,1.9,-9.3,16,9,5,30.36,30.22,14,4,22,0.00
2012-3-4,82.6,70.3,56.3,23.4,17.1,10.7,19,13,9,30.22,29.99,15,4,20,0.00
2012-3-5,80.1,71.1,63.7,25.2,20.5,17.1,20,15,10,30.02,29.84,14,5,23,0.00
2012-3-6,74.2,62.5,46.8,41.0,30.6,21.7,57,32,18,29.84,29.60,63,20,75,0.00
2012-3-7,62.3,53.6,45.9,27.3,6.5,-0.3,44,16,9,30.14,29.75,46,17,61,0.00
2012-3-8,74.7,64.7,55.6,13.4,8.5,4.4,14,11,8,30.29,30.14,38,10,48,0.00
2012-3-9,80.8,69.1,57.4,18.1,9.4,1.6,14,10,6,30.26,29.98,24,6,30,0.00
2012-3-10,74.2,66.4,57.9,25.5,16.4,2.0,22,15,8,30.04,29.88,23,7,28,0.00
2012-3-11,76.8,65.3,53.9,38.3,27.6,18.6,40,25,13,29.96,29.83,42,10,47,0.00
2012-3-12,76.1,66.1,54.6,40.3,35.4,30.1,49,33,19,29.96,29.86,32,9,37,0.00
2012-3-13,77.3,66.4,56.1,41.6,35.7,29.2,50,34,18,29.94,29.86,42,14,48,0.00
2012-3-14,79.4,68.0,58.1,44.3,35.1,26.6,51,31,15,30.02,29.91,42,18,55,0.00
2012-3-15,81.0,69.8,59.7,46.0,37.2,28.2,50,32,17,30.03,29.89,45,14,53,0.00
2012-3-16,79.3,68.1,59.8,46.1,43.1,38.8,56,41,26,29.92,29.75,56,22,60,0.00
2012-3-17,68.0,57.1,45.6,49.4,41.3,32.5,81,56,39,29.76,29.58,57,24,71,0.10
2012-3-18,53.0,46.8,42.7,39.0,33.6,30.1,76,60,42,29.87,29.62,51,16,63,0.02
2012-3-19,62.0,52.0,43.6,36.2,27.4,20.9,61,41,23,30.01,29.84,43,15,55,0.00
2012-3-20,68.8,60.5,45.4,35.4,28.4,22.6,56,31,20,30.16,30.01,18,3,25,0.00
2012-3-21,79.2,66.5,54.1,32.6,28.9,26.1,34,25,17,30.11,29.89,23,3,23,0.00
2012-3-22,82.4,72.4,60.8,39.6,35.1,30.1,37,26,17,29.91,29.75,30,5,30,0.00
2012-3-23,79.4,70.6,62.6,42.7,39.2,34.2,45,33,23,29.92,29.82,31,9,40,0.00
2012-3-24,78.1,68.5,60.2,42.5,38.9,35.0,44,35,22,29.90,29.77,24,6,28,0.00
2012-3-25,75.5,61.5,50.9,44.3,36.8,27.5,61,42,22,29.91,29.69,55,18,61,0.00
2012-3-26,69.1,59.2,50.5,41.2,37.9,33.6,64,46,30,30.10,29.90,42,14,49,0.00
2012-3-27,77.2,64.5,54.0,41.6,34.9,26.5,60,36,16,30.02,29.89,36,11,41,0.00
2012-3-28,78.3,67.2,55.2,42.9,31.0,10.1,45,28,10,29.99,29.86,44,22,59,0.00
2012-3-29,83.3,71.2,62.4,50.5,40.7,33.5,55,35,17,29.95,29.80,50,16,53,0.00
2012-3-30,85.5,74.1,61.9,50.3,43.4,35.8,57,35,19,29.91,29.78,28,8,32,0.00
2012-3-31,80.0,68.3,58.6,49.2,44.2,36.6,60,43,21,29.85,29.76,65,25,85,0.00
2012-4-1,70.2,60.0,49.8,45.6,34.0,27.6,68,40,23,29.97,29.80,78,26,79,0.00
2012-4-2,76.7,66.7,55.0,28.9,15.4,6.6,32,15,9,30.02,29.83,51,14,56,0.00
2012-4-3,84.3,71.8,59.5,34.2,21.4,14.7,29,16,8,29.98,29.78,46,12,50,0.00
2012-4-4,74.6,68.1,64.4,33.1,27.8,21.6,27,22,15,29.89,29.77,38,11,41,0.00
2012-4-5,77.7,67.8,58.0,42.3,28.0,12.0,47,24,11,29.84,29.69,70,20,72,0.00
2012-4-6,75.6,64.3,52.1,32.3,2.4,-23.1,37,12,2,30.08,29.84,34,8,43,0.00
2012-4-7,82.7,71.5,58.7,3.1,-6.7,-19.5,6,4,2,30.07,29.94,21,5,33,0.00
2012-4-8,87.0,75.9,63.6,23.7,0.0,-14.7,15,6,2,30.01,29.87,28,7,32,0.00
2012-4-9,86.1,76.8,67.7,27.3,20.8,7.1,17,13,7,29.92,29.78,30,8,35,0.00
2012-4-10,85.2,72.1,57.8,43.3,27.1,9.0,56,22,9,29.82,29.64,54,15,61,0.00
2012-4-11,66.0,59.6,53.8,44.4,40.0,34.7,60,48,38,30.01,29.74,53,24,60,0.00
2012-4-12,69.0,59.2,52.1,41.2,36.4,29.6,61,44,24,30.10,29.94,61,28,64,0.00
2012-4-13,69.0,56.0,46.3,47.0,39.9,34.9,79,57,32,29.94,29.68,56,23,65,0.10
2012-4-14,63.0,54.2,46.6,37.8,34.3,30.1,67,48,31,30.01,29.68,62,28,74,0.00
2012-4-15,77.9,63.8,50.4,45.4,37.2,34.2,57,40,22,30.12,29.99,30,9,38,0.00
2012-4-16,83.8,72.8,59.6,43.5,35.2,26.9,51,28,13,30.12,29.96,29,4,29,0.00
2012-4-17,90.5,79.1,65.9,41.8,35.4,30.0,32,22,13,30.01,29.83,36,6,36,0.00
2012-4-18,91.9,80.7,70.4,45.2,34.8,26.0,34,20,11,29.88,29.74,45,14,52,0.00
2012-4-19,97.2,82.9,67.8,52.0,41.9,32.1,46,26,11,29.85,29.74,40,9,56,0.00
2012-4-20,98.7,89.7,78.0,47.1,38.2,33.3,31,17,12,29.89,29.76,27,8,40,0.00
2012-4-21,101.9,91.2,81.2,48.9,40.2,35.5,26,18,11,29.82,29.69,28,7,37,0.00
2012-4-22,100.5,88.7,78.6,56.8,44.0,34.6,39,23,11,29.80,29.70,38,8,44,0.00
2012-4-23,86.4,72.4,61.2,54.2,51.4,39.9,68,50,22,29.84,29.71,61,23,68,0.00
2012-4-24,90.2,74.4,59.6,50.1,41.6,30.7,69,36,13,29.94,29.80,56,17,69,0.00
2012-4-25,89.7,80.4,65.7,49.7,40.5,31.1,55,26,15,29.86,29.66,67,20,71,0.00
2012-4-26,74.3,66.5,59.5,50.0,46.6,41.4,69,50,36,29.94,29.70,54,25,66,0.03
2012-4-27,86.4,71.3,58.4,51.2,45.8,40.0,66,44,20,30.00,29.79,48,14,54,0.00
2012-4-28,92.9,79.7,64.8,50.4,34.4,12.1,55,26,6,29.82,29.62,34,12,46,0.00
2012-4-29,90.8,81.0,69.8,52.4,34.0,23.5,43,20,11,29.81,29.67,22,6,34,0.00
2012-4-30,89.1,78.0,68.1,54.9,46.0,35.2,47,34,15,29.86,29.73,33,9,43,0.00
2012-5-1,78.4,70.2,62.9,52.4,50.6,48.1,63,50,37,29.77,29.65,52,26,66,0.00
2012-5-2,75.9,66.4,59.5,50.1,48.2,46.0,68,53,36,29.81,29.67,60,32,73,0.00
2012-5-3,81.1,69.1,59.4,49.6,48.0,45.8,68,49,30,29.89,29.79,52,27,60,0.00
2012-5-4,85.6,73.3,62.3,48.5,44.6,36.2,55,37,19,29.92,29.83,48,22,61,0.00
2012-5-5,90.5,76.5,63.4,51.1,37.9,16.2,52,30,7,29.89,29.76,42,17,46,0.00
2012-5-6,91.0,78.6,65.9,50.5,32.2,9.6,49,25,5,29.84,29.76,38,15,47,0.00
2012-5-7,92.9,82.0,68.4,49.2,17.4,-12.3,48,13,2,29.85,29.71,50,18,59,0.00
2012-5-8,91.8,82.3,68.5,27.1,9.4,-10.4,19,7,2,29.83,29.74,51,12,58,0.00
2012-5-9,99.9,89.0,77.2,39.0,19.5,1.1,17,9,4,29.79,29.63,50,14,51,0.00
2012-5-10,96.3,82.5,70.4,45.0,38.1,21.7,31,22,7,29.77,29.62,52,14,61,0.00
2012-5-11,93.1,79.9,65.8,48.7,36.7,22.3,38,23,9,29.80,29.67,50,21,61,0.00
2012-5-12,95.6,83.0,69.5,50.7,43.4,29.9,39,26,10,29.91,29.79,38,12,47,0.00
2012-5-13,103.3,87.3,73.2,50.6,36.5,26.4,42,19,8,29.88,29.76,43,14,50,0.00
2012-5-14,102.3,88.4,76.0,45.3,31.3,15.6,30,15,5,29.83,29.70,52,18,55,0.00
2012-5-15,95.9,85.1,74.2,42.5,17.8,-13.7,26,10,2,29.73,29.66,55,24,61,0.00
2012-5-16,102.3,90.3,74.8,45.3,28.8,12.8,25,12,5,29.75,29.63,34,11,39,0.00
2012-5-17,100.3,85.6,75.8,52.2,46.9,30.7,40,27,12,29.70,29.55,67,16,72,0.00
2012-5-18,86.8,75.9,64.7,50.8,45.2,33.3,51,35,21,29.72,29.55,60,32,73,0.00
2012-5-19,98.1,83.6,67.6,51.0,37.2,24.7,54,24,8,29.78,29.70,34,10,36,0.00
2012-5-20,101.7,90.6,76.6,45.9,32.5,24.8,31,14,7,29.81,29.71,24,6,34,0.00
2012-5-21,105.7,93.2,81.4,45.3,36.9,31.8,23,15,9,29.79,29.68,49,13,59,0.00
2012-5-22,102.3,91.2,83.0,51.2,36.5,23.1,32,16,8,29.73,29.57,50,21,57,0.00
2012-5-23,93.2,83.4,70.9,53.6,47.1,37.9,51,29,18,29.57,29.44,57,30,69,0.00
2012-5-24,93.8,77.0,65.5,53.7,49.0,34.2,61,41,13,29.57,29.42,56,24,61,0.00
2012-5-25,75.0,66.4,56.0,51.7,44.8,33.5,64,47,32,29.75,29.47,69,37,76,0.00
2012-5-26,73.1,62.9,53.5,43.2,37.9,34.3,56,41,27,29.91,29.73,54,27,65,0.00
2012-5-27,86.5,73.0,57.5,41.8,35.0,27.1,48,27,12,29.96,29.83,36,10,45,0.00
2012-5-28,92.4,81.4,68.4,45.8,32.0,23.8,33,19,9,29.87,29.76,30,6,37,0.00
2012-5-29,96.1,84.6,72.8,42.6,36.0,25.3,28,19,9,29.84,29.75,49,13,56,0.00
2012-5-30,97.3,85.7,75.1,49.3,36.1,21.6,31,18,8,29.84,29.73,46,22,56,0.00
2012-5-31,109.7,93.8,75.3,45.2,32.1,11.5,32,14,3,29.76,29.59,50,17,54,0.00
2012-6-1,109.6,98.1,86.5,48.2,29.0,16.0,21,10,4,29.65,29.55,48,19,58,0.00
2012-6-2,101.7,89.4,79.1,53.5,41.2,29.9,36,20,9,29.67,29.58,52,20,59,0.00
2012-6-3,97.2,84.9,73.2,54.7,49.4,35.8,45,31,13,29.76,29.62,37,12,42,0.00
2012-6-4,94.8,81.8,70.5,54.7,52.0,48.4,54,37,21,29.77,29.68,59,22,74,0.00
2012-6-5,86.3,75.3,66.9,51.7,45.3,38.0,55,36,19,29.79,29.67,57,32,71,0.00
2012-6-6,94.8,80.2,65.9,47.8,34.2,16.9,49,24,6,29.75,29.62,41,16,48,0.00
2012-6-7,98.8,87.3,73.5,45.7,29.4,14.3,29,14,5,29.73,29.65,34,11,35,0.00
2012-6-8,98.2,85.3,73.5,51.6,44.9,38.8,36,25,15,29.72,29.59,47,12,61,0.00
2012-6-9,92.4,82.2,72.5,51.8,44.3,35.9,46,27,17,29.63,29.53,57,28,64,0.00
2012-6-10,98.4,84.7,68.8,52.4,32.9,8.9,54,22,4,29.75,29.60,42,13,46,0.00
2012-6-11,100.5,87.4,73.7,53.9,36.8,13.9,45,20,6,29.82,29.72,26,8,30,0.00
2012-6-12,103.0,90.7,78.1,51.0,39.0,30.9,35,17,9,29.81,29.66,46,11,49,0.00
2012-6-13,101.5,90.6,77.2,50.1,34.0,15.2,30,15,7,29.68,29.54,45,19,56,0.00
2012-6-14,97.5,84.8,72.0,51.8,42.5,26.0,38,25,8,29.67,29.57,40,13,44,0.00
2012-6-15,94.6,82.5,69.9,53.8,48.4,35.5,50,33,13,29.72,29.59,31,10,36,0.00
2012-6-16,95.3,84.2,72.4,56.2,47.2,33.2,51,30,12,29.81,29.64,22,5,32,0.00
2012-6-17,107.3,93.8,80.9,46.6,36.2,29.0,21,14,8,29.81,29.64,36,8,43,0.00
2012-6-18,103.9,93.5,82.7,43.0,29.3,-1.7,24,11,2,29.70,29.60,63,25,78,0.00
2012-6-19,99.8,89.1,80.4,39.9,29.4,11.4,20,13,5,29.63,29.55,67,39,78,0.00
2012-6-20,106.1,88.9,72.9,51.0,39.0,21.0,32,20,6,29.66,29.54,44,18,55,0.00
2012-6-21,101.2,88.4,75.2,52.5,45.9,35.6,42,24,11,29.72,29.62,52,15,59,0.00
2012-6-22,97.9,86.4,72.8,47.2,33.2,18.1,39,17,6,29.69,29.58,63,24,70,0.00
2012-6-23,98.9,85.9,72.5,49.7,38.1,26.0,37,20,9,29.68,29.58,41,18,54,0.00
2012-6-24,100.1,85.9,74.8,51.1,43.9,33.8,37,24,11,29.79,29.67,37,14,47,0.00
2012-6-25,100.1,87.2,77.2,47.9,34.3,16.6,33,18,5,29.81,29.69,51,22,56,0.00
2012-6-26,101.9,86.9,69.7,43.8,28.4,10.2,28,15,4,29.73,29.60,47,18,53,0.00
2012-6-27,105.5,91.1,77.2,45.3,28.5,7.7,25,13,4,29.74,29.61,42,13,45,0.00
2012-6-28,106.8,93.1,81.6,46.0,34.7,15.6,26,14,6,29.83,29.73,41,13,49,0.00
2012-6-29,104.8,92.0,77.9,45.2,26.0,-0.7,28,12,2,29.83,29.71,45,18,56,0.00
2012-6-30,103.5,90.8,81.4,48.5,29.7,5.6,28,13,3,29.76,29.63,56,19,59,0.00
2012-7-1,101.1,89.0,78.1,52.9,42.7,31.9,35,21,10,29.69,29.58,52,26,65,0.00
2012-7-2,99.1,88.2,76.5,56.5,48.6,36.9,41,27,12,29.71,29.61,42,15,46,0.00
2012-7-3,95.5,86.0,75.2,65.1,57.9,49.6,53,39,24,29.76,29.66,36,10,46,0.00
2012-7-4,92.5,83.3,74.9,69.7,60.8,45.4,80,50,20,29.82,29.72,31,6,42,0.04
2012-7-5,96.5,86.3,76.1,61.7,54.5,42.4,53,36,16,29.85,29.73,30,7,35,0.00
2012-7-6,102.1,88.3,76.3,58.2,53.6,42.0,52,33,14,29.87,29.73,36,10,51,0.00
2012-7-7,105.8,94.0,81.0,54.9,33.4,16.1,37,13,5,29.84,29.72,46,12,53,0.00
2012-7-8,109.2,97.5,83.3,43.2,27.9,5.2,17,9,4,29.82,29.70,40,13,50,0.00
2012-7-9,110.3,99.2,86.7,50.1,40.6,33.4,19,14,9,29.77,29.65,40,12,46,0.00
2012-7-10,114.6,102.0,90.5,54.5,43.4,35.4,19,14,9,29.70,29.56,52,16,63,0.00
2012-7-11,105.9,98.0,92.3,60.9,52.4,41.0,30,22,15,29.76,29.60,48,11,56,0.00
2012-7-12,94.6,88.9,81.8,73.6,63.8,50.8,71,45,25,29.86,29.65,40,7,51,0.05
2012-7-13,97.7,86.7,80.0,71.5,66.8,61.7,71,53,33,29.86,29.72,36,5,41,0.00
2012-7-14,96.2,87.4,77.1,71.7,67.1,53.3,83,54,32,29.85,29.70,28,7,36,0.01
2012-7-15,100.1,89.4,82.1,66.8,52.6,23.9,56,32,7,29.82,29.66,43,11,52,0.00
2012-7-16,98.6,86.0,76.2,39.7,31.0,19.7,23,14,7,29.76,29.68,50,19,59,0.00
2012-7-17,96.3,83.7,71.9,47.7,38.2,19.2,33,21,11,29.81,29.73,42,16,53,0.00
2012-7-18,100.5,89.7,75.8,46.6,35.2,23.7,33,16,7,29.84,29.74,37,13,42,0.00
2012-7-19,103.7,93.2,83.5,53.7,44.8,35.9,25,19,13,29.86,29.73,34,8,40,0.00
2012-7-20,106.6,95.4,84.6,56.9,51.9,47.7,30,24,17,29.84,29.70,35,13,42,0.00
2012-7-21,103.9,94.2,85.2,64.8,57.0,48.5,46,30,19,29.85,29.67,35,11,39,0.00
2012-7-22,102.1,93.6,84.1,67.6,59.6,46.9,48,33,21,29.85,29.70,22,1,30,0.00
2012-7-23,103.0,92.8,84.5,63.5,56.3,49.6,37,30,24,29.83,29.68,38,6,50,0.00
2012-7-24,104.8,92.8,83.1,51.6,43.1,31.1,33,19,8,29.79,29.68,47,21,56,0.00
2012-7-25,106.0,92.4,80.0,48.1,27.5,-6.0,26,13,2,29.81,29.69,48,18,57,0.00
2012-7-26,105.0,91.6,78.5,46.8,32.3,13.6,28,14,5,29.79,29.70,39,16,45,0.00
2012-7-27,103.8,91.0,79.9,47.8,35.5,13.4,28,16,4,29.81,29.70,46,17,52,0.00
2012-7-28,103.2,92.1,79.0,49.2,36.0,12.3,28,15,5,29.83,29.72,33,10,40,0.00
2012-7-29,100.6,91.6,81.4,67.3,58.6,44.2,51,34,20,29.85,29.72,30,7,38,0.00
2012-7-30,91.5,83.8,78.3,75.1,71.0,61.3,83,67,39,29.89,29.79,27,7,35,0.01
2012-7-31,82.3,77.8,72.3,74.4,72.6,68.4,94,84,74,29.94,29.84,22,2,24,1.38
2012-8-1,96.2,86.0,74.4,71.1,63.2,54.0,84,49,32,29.95,29.81,23,4,31,0.00
2012-8-2,101.4,91.1,79.8,66.4,61.6,56.6,61,39,26,29.85,29.68,33,8,42,0.00
2012-8-3,102.3,91.4,79.8,62.5,57.5,54.4,43,33,23,29.74,29.61,30,12,40,0.00
2012-8-4,104.3,91.6,80.8,61.8,57.2,47.0,46,33,15,29.76,29.65,24,8,40,0.00
2012-8-5,103.9,93.5,82.3,66.5,56.6,47.3,49,31,16,29.88,29.74,22,7,31,0.00
2012-8-6,107.2,97.6,87.2,63.6,57.9,50.0,40,28,19,29.91,29.75,25,5,40,0.00
2012-8-7,109.2,100.3,91.0,66.6,57.4,51.1,39,25,19,29.83,29.67,33,8,40,0.00
2012-8-8,110.7,100.8,91.1,65.7,57.4,52.4,32,24,16,29.79,29.66,34,7,38,0.00
2012-8-9,104.7,96.7,86.9,69.3,63.4,51.2,55,35,25,29.80,29.65,30,6,34,0.00
2012-8-10,112.5,99.4,90.5,73.0,62.9,44.7,56,32,11,29.75,29.55,41,6,53,0.00
2012-8-11,109.5,97.7,90.0,67.8,60.2,53.3,47,30,18,29.74,29.59,47,7,62,0.00
2012-8-12,112.5,100.8,89.2,62.5,56.2,50.8,32,24,16,29.69,29.59,28,9,36,0.00
2012-8-13,111.5,101.2,91.3,59.6,54.7,48.0,31,22,14,29.69,29.60,42,12,50,0.00
2012-8-14,108.6,98.5,88.1,63.4,55.7,45.0,34,25,13,29.69,29.56,39,10,43,0.00
2012-8-15,101.0,92.4,84.5,73.5,64.6,52.2,67,41,28,29.75,29.62,28,8,38,0.00
2012-8-16,98.3,89.3,83.0,75.4,69.7,56.9,75,54,33,29.87,29.72,25,6,39,0.00
2012-8-17,95.2,87.4,80.9,74.6,71.3,66.8,76,60,41,29.89,29.76,26,6,33,0.00
2012-8-18,97.3,88.9,80.1,72.6,69.3,60.4,74,54,37,29.86,29.68,25,5,30,0.00
2012-8-19,101.2,92.3,83.0,70.3,64.5,59.3,57,40,31,29.78,29.63,28,7,32,0.00
2012-8-20,102.2,93.1,83.6,69.3,62.1,58.3,43,36,30,29.78,29.64,28,9,34,0.00
2012-8-21,99.9,90.7,81.8,71.7,63.6,59.8,50,41,32,29.78,29.64,36,9,43,0.00
2012-8-22,96.2,86.8,80.2,73.0,67.5,61.8,77,54,34,29.80,29.69,28,7,40,0.07
2012-8-23,96.8,87.0,77.4,69.7,65.6,63.1,62,50,39,29.82,29.69,28,7,34,0.00
2012-8-24,101.2,90.3,79.9,63.8,60.8,57.1,53,38,24,29.78,29.63,36,8,43,0.00
2012-8-25,100.7,90.1,81.3,66.7,59.2,53.6,48,36,26,29.73,29.60,40,11,44,0.00
2012-8-26,102.8,89.9,78.9,54.1,43.5,28.1,37,22,9,29.78,29.67,35,14,43,0.00
2012-8-27,106.9,94.8,81.9,49.0,40.2,20.8,30,16,8,29.83,29.71,24,9,31,0.00
2012-8-28,106.1,96.2,87.0,54.5,47.9,42.8,24,20,14,29.81,29.68,29,6,34,0.00
2012-8-29,101.6,93.6,85.6,70.8,61.7,48.4,61,36,22,29.79,29.64,19,4,29,0.00
2012-8-30,92.9,84.8,79.4,74.7,69.2,64.8,79,60,43,29.78,29.68,35,5,40,0.02
2012-8-31,97.3,87.5,78.2,70.6,61.5,25.7,73,48,11,29.82,29.70,38,7,44,0.00
2012-9-1,101.5,92.8,85.1,35.0,28.3,15.8,12,10,8,29.82,29.72,39,16,48,0.00
2012-9-2,104.3,92.5,79.8,41.2,21.8,-9.9,20,9,2,29.81,29.69,28,7,34,0.00
2012-9-3,100.5,91.6,83.1,72.6,52.2,38.1,50,27,17,29.87,29.75,21,6,27,0.00
2012-9-4,98.3,89.7,82.2,77.1,68.6,43.3,82,53,20,29.91,29.78,31,5,36,0.00
2012-9-5,101.1,90.4,81.8,57.3,51.2,36.1,33,27,15,29.87,29.73,40,12,48,0.00
2012-9-6,100.8,90.8,83.5,60.1,56.1,52.2,43,32,24,29.84,29.71,42,17,46,0.00
2012-9-7,102.1,90.6,81.8,64.2,59.4,57.0,45,36,24,29.88,29.76,36,13,42,0.00
2012-9-8,103.3,93.1,83.0,68.2,61.5,57.5,48,36,24,29.82,29.70,25,6,30,0.00
2012-9-9,98.9,90.0,77.8,70.6,67.5,62.5,73,49,35,29.89,29.68,72,6,76,0.00
2012-9-10,91.2,81.8,76.6,69.0,67.0,63.3,73,62,43,29.88,29.76,29,6,39,0.00
2012-9-11,89.6,81.3,73.7,71.1,68.9,65.7,87,67,52,29.87,29.76,22,6,28,0.00
2012-9-12,95.3,85.7,77.0,69.5,65.7,52.8,73,53,32,29.93,29.81,20,3,25,0.00
2012-9-13,103.2,93.6,82.1,54.5,42.3,26.0,35,19,8,29.94,29.83,33,7,37,0.00
2012-9-14,101.1,94.1,86.8,50.7,41.1,31.2,20,16,11,29.98,29.86,32,7,49,0.00
2012-9-15,99.0,90.5,80.6,46.4,41.6,34.3,24,18,15,30.00,29.87,21,5,27,0.00
2012-9-16,96.8,89.1,78.7,51.8,44.0,38.1,26,21,16,29.95,29.82,25,7,31,0.00
2012-9-17,100.7,88.7,76.4,45.8,41.5,31.0,28,20,9,29.90,29.76,35,13,43,0.00
2012-9-18,100.5,90.5,79.9,44.5,40.8,35.5,25,18,12,29.89,29.79,30,6,30,0.00
2012-9-19,101.2,92.3,81.8,46.4,42.0,38.2,23,18,12,29.87,29.77,35,4,37,0.00
2012-9-20,105.4,94.7,84.1,47.3,42.1,37.0,23,17,10,29.84,29.72,28,6,33,0.00
2012-9-21,105.5,95.6,87.3,51.5,43.4,37.6,25,17,10,29.80,29.68,24,6,30,0.00
2012-9-22,102.5,93.8,84.1,53.0,43.6,37.8,26,18,13,29.81,29.73,28,6,32,0.00
2012-9-23,103.7,94.1,86.8,49.1,41.6,35.5,25,17,10,29.85,29.76,33,11,48,0.00
2012-9-24,98.7,90.0,83.4,48.9,44.2,39.2,28,21,16,29.84,29.69,53,21,61,0.00
2012-9-25,95.0,85.3,77.2,48.1,41.8,33.6,33,23,12,29.76,29.65,52,23,57,0.00
2012-9-26,96.8,85.1,73.7,51.8,43.6,37.2,36,25,14,29.78,29.69,31,8,35,0.00
2012-9-27,94.7,86.0,78.7,58.1,46.3,36.4,37,26,14,29.85,29.74,26,5,32,0.00
2012-9-28,94.8,86.3,77.7,53.6,46.5,39.4,41,25,21,29.84,29.72,19,3,25,0.00
2012-9-29,98.7,88.8,78.0,46.8,43.0,36.1,30,21,12,29.88,29.78,25,4,28,0.00
2012-9-30,104.1,93.0,81.2,41.4,35.8,31.4,21,14,9,29.90,29.78,25,5,34,0.00
2012-10-1,106.7,95.8,85.6,34.0,28.5,20.6,14,10,5,29.85,29.72,51,6,51,0.00
2012-10-2,105.8,95.7,85.7,44.7,31.2,24.3,19,11,6,29.77,29.67,36,8,42,0.00
2012-10-3,100.8,92.0,82.9,47.0,36.9,32.2,27,15,10,29.83,29.72,46,22,54,0.00
2012-10-4,94.3,84.6,76.4,48.4,38.0,30.0,33,20,11,29.92,29.83,49,20,57,0.00
2012-10-5,93.7,81.8,69.4,49.8,41.8,32.9,39,26,12,29.91,29.79,34,11,39,0.00
2012-10-6,91.4,80.8,70.4,50.5,45.7,36.8,45,30,15,29.83,29.72,42,14,48,0.00
2012-10-7,93.3,83.1,75.6,55.6,47.3,38.7,47,30,15,29.80,29.71,48,12,48,0.00
2012-10-8,92.1,80.6,73.2,54.4,48.4,40.5,50,34,19,29.83,29.75,39,12,48,0.00
2012-10-9,88.6,76.6,65.9,54.2,47.1,35.5,58,38,17,29.86,29.76,36,13,46,0.00
2012-10-10,81.8,71.6,64.9,52.6,47.5,38.7,58,44,23,29.87,29.74,45,20,61,0.00
2012-10-11,73.9,66.5,60.8,49.3,43.1,38.5,58,43,31,29.87,29.77,52,24,63,0.00
2012-10-12,73.0,65.5,58.0,47.2,44.2,41.1,59,47,33,30.09,29.86,51,21,57,0.00
2012-10-13,83.5,71.5,60.0,45.0,42.2,40.2,51,36,23,30.14,29.98,16,3,20,0.00
2012-10-14,93.2,82.7,69.6,44.3,41.8,37.9,37,24,15,30.04,29.89,29,8,42,0.00
2012-10-15,94.5,84.5,73.9,42.6,38.9,33.2,29,21,13,29.90,29.76,19,3,29,0.00
2012-10-16,94.9,84.9,76.1,42.5,36.0,32.8,23,18,13,29.80,29.66,25,5,26,0.00
2012-10-17,91.1,82.4,76.1,52.2,40.8,34.5,32,23,18,29.85,29.69,20,5,25,0.00
2012-10-18,91.7,80.2,71.4,65.6,52.3,38.8,61,40,21,29.98,29.85,15,4,20,0.00
2012-10-19,94.9,82.6,71.3,58.0,41.5,25.9,61,28,9,29.89,29.72,27,5,34,0.00
2012-10-20,87.8,77.5,70.2,57.1,49.7,39.2,60,39,23,29.75,29.62,47,18,57,0.00
2012-10-21,78.6,70.9,66.0,54.3,52.2,49.7,63,52,39,29.77,29.68,57,29,66,0.00
2012-10-22,79.8,69.6,64.0,52.8,48.7,39.7,62,49,24,29.87,29.75,53,23,56,0.00
2012-10-23,76.5,67.3,61.2,47.9,44.1,40.3,58,44,28,29.86,29.76,50,25,60,0.00
2012-10-24,77.0,67.3,59.1,42.9,39.4,33.1,52,37,24,29.96,29.82,42,18,50,0.00
2012-10-25,80.2,70.8,59.1,33.5,24.2,19.1,33,18,12,30.03,29.91,23,4,27,0.00
2012-10-26,77.8,71.4,63.6,25.1,18.1,5.6,21,14,8,30.13,29.96,41,12,50,0.00
2012-10-27,87.0,75.5,64.3,22.2,13.7,4.2,14,9,7,29.96,29.82,16,4,23,0.00
2012-10-28,87.2,77.0,67.6,26.0,20.2,16.1,15,12,8,29.95,29.86,16,5,18,0.00
2012-10-29,88.0,77.7,68.6,34.6,24.5,19.1,19,14,10,30.02,29.93,15,4,20,0.00
2012-10-30,87.9,78.5,69.3,31.0,22.7,17.8,17,13,9,29.98,29.87,18,5,22,0.00
2012-10-31,86.9,78.0,70.1,36.8,27.7,21.8,25,16,10,29.94,29.84,18,5,20,0.00
2012-11-1,84.0,75.2,66.2,42.7,35.6,29.4,38,24,17,29.89,29.79,30,9,46,0.00
2012-11-2,84.1,72.7,62.1,38.9,29.5,22.0,38,22,11,29.90,29.80,22,7,26,0.00
2012-11-3,85.7,74.7,65.5,32.8,28.2,24.8,24,18,13,30.00,29.90,16,4,20,0.00
2012-11-4,90.7,79.8,68.6,27.4,23.5,19.9,19,13,8,30.06,29.97,29,6,33,0.00
2012-11-5,93.5,82.7,73.2,29.0,26.5,22.9,19,13,9,30.04,29.94,29,5,34,0.00
2012-11-6,91.0,81.1,70.7,38.2,32.3,27.2,22,17,13,30.01,29.89,16,4,18,0.00
2012-11-7,89.4,79.6,71.0,39.0,32.9,29.1,26,19,13,29.94,29.80,35,11,43,0.00
2012-11-8,77.6,70.3,62.5,52.1,45.5,32.2,61,43,22,29.86,29.72,67,23,74,0.00
2012-11-9,65.2,59.0,53.3,50.4,38.9,29.8,62,48,30,29.86,29.72,73,32,80,0.00
2012-11-10,61.9,55.1,48.9,35.7,27.6,9.3,54,36,20,30.12,29.86,46,19,56,0.00
2012-11-11,64.3,56.0,46.7,18.5,13.5,6.1,26,19,14,30.36,30.12,22,6,28,0.00
2012-11-12,69.3,58.8,47.5,12.0,6.0,-4.3,19,12,8,30.33,30.16,16,2,18,0.00
2012-11-13,75.0,64.4,51.8,14.3,1.4,-13.1,12,8,3,30.18,30.06,17,3,19,0.00
2012-11-14,78.2,68.0,57.3,20.3,13.1,7.3,15,12,8,30.08,29.98,13,3,18,0.00
2012-11-15,72.8,66.1,60.6,25.9,16.7,12.3,22,15,11,30.08,29.98,10,1,13,0.00
2012-11-16,74.6,66.2,59.2,42.1,26.5,13.4,44,23,15,30.07,29.96,12,2,19,0.00
2012-11-17,74.4,66.7,61.7,50.1,46.4,34.8,64,49,35,30.02,29.95,39,11,41,0.00
2012-11-18,74.4,66.1,59.7,49.0,45.2,40.6,64,48,30,30.09,29.96,40,16,49,0.00
2012-11-19,75.2,65.2,56.9,47.7,42.5,39.8,66,45,30,30.18,30.09,22,4,26,0.00
2012-11-20,76.6,68.0,59.6,41.2,37.4,32.8,44,33,23,30.12,29.97,16,3,20,0.00
2012-11-21,79.3,69.1,61.2,40.8,34.3,24.6,40,28,20,30.02,29.92,16,3,23,0.00
2012-11-22,80.1,70.3,61.1,41.3,36.1,32.7,37,29,21,30.11,29.96,12,2,15,0.00
2012-11-23,82.7,71.4,63.9,34.0,29.8,18.8,31,22,15,30.15,30.05,13,3,21,0.00
2012-11-24,84.8,73.9,65.0,28.6,23.8,20.4,21,16,10,30.08,29.90,15,4,19,0.00
2012-11-25,79.9,72.9,64.9,32.7,29.0,24.1,27,20,16,29.90,29.78,18,4,21,0.00
2012-11-26,78.0,69.4,60.9,48.5,36.5,29.5,48,30,23,30.06,29.87,17,3,18,0.00
2012-11-27,79.3,70.1,63.1,36.7,32.7,30.2,31,25,19,30.11,30.00,15,4,21,0.00
2012-11-28,74.8,67.4,61.4,45.7,35.9,29.1,50,32,23,30.10,30.00,34,8,40,0.00
2012-11-29,75.1,68.0,61.8,54.1,50.0,40.9,65,53,37,30.12,30.02,46,19,55,0.00
2012-11-30,72.2,66.6,60.3,54.4,51.7,48.5,71,59,49,30.08,29.99,38,8,52,0.00
2012-12-1,73.9,67.1,62.9,51.2,49.4,46.9,60,53,42,30.07,29.96,47,19,56,0.00
2012-12-2,73.3,66.6,62.8,52.4,50.7,48.1,66,57,47,30.01,29.93,54,23,63,0.00
2012-12-3,75.1,67.7,62.6,53.2,50.4,47.0,64,54,42,30.13,29.97,41,14,49,0.00
2012-12-4,77.0,68.9,62.5,49.5,47.3,41.9,56,46,37,30.20,30.10,15,2,18,0.00
2012-12-5,79.8,69.7,61.7,44.8,40.0,31.1,49,34,26,30.10,29.90,17,3,21,0.00
2012-12-6,79.9,68.3,61.4,47.5,42.7,38.5,52,40,28,29.90,29.77,21,4,26,0.00
2012-12-7,78.6,70.5,61.7,41.7,29.7,16.3,45,24,11,29.93,29.84,34,10,42,0.00
2012-12-8,76.0,66.3,56.2,29.3,18.9,11.4,28,17,10,29.93,29.83,19,3,25,0.00
2012-12-9,77.3,66.7,57.3,28.9,22.3,16.8,29,19,12,30.16,29.90,29,4,34,0.00
2012-12-10,70.4,60.8,54.8,29.9,24.8,21.5,33,25,19,30.18,30.03,17,2,21,0.00
2012-12-11,70.3,61.7,54.3,38.7,29.1,24.2,44,29,21,30.06,29.93,18,3,21,0.00
2012-12-12,64.4,57.6,49.8,42.7,33.5,26.5,57,41,26,29.94,29.80,22,2,30,0.00
2012-12-13,59.3,53.2,50.5,50.3,45.2,36.9,93,76,45,29.82,29.65,32,4,39,0.24
2012-12-14,58.5,52.3,48.3,41.7,35.6,30.5,70,53,37,29.94,29.66,52,18,54,0.01
2012-12-15,59.3,52.6,47.9,43.4,37.5,29.7,77,57,33,30.05,29.91,31,7,37,0.00
2012-12-16,60.4,53.9,46.8,43.1,38.9,36.1,68,57,45,30.14,30.03,30,7,36,0.00
2012-12-17,63.4,56.5,52.9,47.4,44.4,41.6,74,64,51,30.14,29.94,13,1,17,0.00
2012-12-18,58.0,53.2,46.6,50.8,41.9,16.6,90,68,27,29.94,29.71,56,9,56,0.00
2012-12-19,57.1,49.7,42.5,19.1,9.8,-1.8,38,21,9,30.37,29.92,43,11,51,0.00
2012-12-20,57.2,48.2,40.5,18.1,11.8,5.5,29,23,17,30.37,30.18,14,2,17,0.00
2012-12-21,62.8,52.4,43.0,20.5,15.4,11.3,29,23,15,30.18,30.06,14,2,18,0.00
2012-12-22,64.5,54.4,45.4,37.1,20.6,12.9,54,28,17,30.12,30.04,17,3,22,0.00
2012-12-23,64.6,56.9,48.7,42.3,38.9,35.3,64,51,36,30.14,30.02,47,14,56,0.00
2012-12-24,67.1,60.3,55.2,48.8,42.2,23.5,64,52,25,30.04,29.87,61,23,64,0.00
2012-12-25,59.2,53.5,46.0,26.0,18.4,8.5,34,25,15,30.16,29.99,25,1,28,0.00
2012-12-26,61.3,51.9,44.2,39.7,28.9,14.8,61,42,25,29.98,29.83,48,13,64,0.00
2012-12-27,60.8,53.5,46.7,35.0,29.7,23.1,57,41,29,30.09,29.87,35,12,43,0.00
2012-12-28,59.8,52.3,43.9,25.5,20.2,17.8,42,29,20,30.20,30.09,16,3,20,0.00
2012-12-29,57.2,50.2,43.6,37.7,26.9,21.2,62,41,29,30.11,29.95,16,2,22,0.00
2012-12-30,57.4,49.1,43.3,35.0,31.7,27.6,64,52,34,30.02,29.85,31,7,40,0.00
2012-12-31,59.0,50.0,42.7,31.2,22.1,15.6,61,35,19,30.25,30.02,29,5,39,0.00
2013-1-1,56.3,49.7,43.4,24.1,19.3,11.7,42,30,20,30.28,30.18,18,2,24,0.00